Seattle, WA
on Thursday, January 31, 2013

Thursday
Previous Day Next Day
Daily Summary
 ActualAverageRecord
Temperature
Mean Temperature °F 43°F  
Max Temperature 49°F 49°F 61°F (1960)
Min Temperature 45°F 37°F 0°F (1950)
Degree Days
Heating Degree Days 18 22  
Month to date heating degree days 823 710  
Since 1 July heating degree days 2574 2649  
Cooling Degree Days 0 0  
Month to date cooling degree days 0 0  
Year to date cooling degree days 0 0  
Moisture
Dew Point 44°F   
Average Humidity 87    
Maximum Humidity 93    
Minimum Humidity 80    
Precipitation
Precipitation 0.12 in 0.16 in 1.93 in (1987)
Month to date precipitation 4.16 5.57  
Year to date precipitation 4.16 5.57  
Snow
Snow 0.00 in in 2.00 in (1969)
Month to date snowfall T  
Since 1 July snowfall 0.6  
Snow Depth 0.00 in   
Wind
Wind Speed 9 mph   
Max Wind Speed 17 mph   
Max Gust Speed 24 mph   
Visibility 6 miles   
Events Fog , Rain   

Key: T is trace of precipitation, MM is missing value
Source: NWS Daily Summary
Time(PST)TemperatureDew PointHumidity Pressure Visibility Wind DirectionWind SpeedGust SpeedPrecipitationEvents Conditions
12:53 AM 46.0°F 45.0°F 96% 30.41 in 0.2 miles SSW 4.6 mph - 0.00 in Fog , Rain Light Rain
1:53 AM 46.0°F 45.0°F 96% 30.41 in 0.2 miles SSW 6.9 mph - 0.01 in   Light Drizzle
2:53 AM 46.0°F 45.0°F 96% 30.42 in 0.2 miles SSW 5.8 mph - 0.00 in   Light Drizzle
3:53 AM 46.0°F 44.1°F 93% 30.42 in 2.0 miles SSW 10.4 mph - 0.02 in Rain Light Rain
4:53 AM 46.0°F 44.1°F 93% 30.41 in 2.0 miles SSE 5.8 mph - 0.01 in   Overcast
5:16 AM 46.4°F 44.6°F 93% 30.38 in 7.0 miles SSW 6.9 mph - N/A   Overcast
5:53 AM 46.0°F 44.1°F 93% 30.41 in 10.0 miles SE 8.1 mph - N/A   Overcast
6:40 AM 46.4°F 44.6°F 93% 30.38 in 10.0 miles South 5.8 mph - N/A   Overcast
6:53 AM 46.0°F 44.1°F 93% 30.40 in 10.0 miles South 11.5 mph - N/A   Overcast
7:42 AM 46.4°F 44.6°F 93% 30.38 in 10.0 miles SSE 5.8 mph - N/A   Overcast
7:53 AM 46.0°F 44.1°F 93% 30.40 in 10.0 miles SSE 6.9 mph - N/A   Overcast
8:53 AM 46.0°F 44.1°F 93% 30.40 in 10.0 miles South 8.1 mph - N/A   Overcast
9:14 AM 46.4°F 44.6°F 93% 30.37 in 10.0 miles South 10.4 mph - N/A   Overcast
9:53 AM 48.0°F 43.0°F 83% 30.39 in 10.0 miles South 10.4 mph - N/A   Overcast
10:53 AM 46.0°F 43.0°F 89% 30.40 in 9.0 miles South 12.7 mph - 0.03 in Rain Light Rain
11:53 AM 46.9°F 44.1°F 90% 30.38 in 10.0 miles South 8.1 mph - 0.01 in   Mostly Cloudy
12:53 PM 48.0°F 44.1°F 86% 30.36 in 10.0 miles South 11.5 mph - N/A   Mostly Cloudy
1:09 PM 48.2°F 44.6°F 87% 30.33 in 10.0 miles South 11.5 mph - N/A   Mostly Cloudy
1:53 PM 48.9°F 43.0°F 80% 30.35 in 10.0 miles South 17.3 mph 21.9 mph N/A   Mostly Cloudy
2:53 PM 48.9°F 43.0°F 80% 30.33 in 10.0 miles SSW 13.8 mph - N/A   Overcast
3:53 PM 48.9°F 44.1°F 83% 30.33 in 10.0 miles SSW 11.5 mph - N/A   Overcast
4:53 PM 48.0°F 43.0°F 83% 30.33 in 10.0 miles SSW 9.2 mph - N/A   Overcast
5:53 PM 48.0°F 43.0°F 83% 30.34 in 10.0 miles SSW 9.2 mph - N/A   Overcast
6:03 PM 48.2°F 42.8°F 82% 30.32 in 10.0 miles SSW 9.2 mph - N/A   Overcast
6:53 PM 46.9°F 44.1°F 90% 30.34 in 7.0 miles SSW 8.1 mph - 0.00 in Rain Light Rain
7:21 PM 46.4°F 44.6°F 93% 30.31 in 6.0 miles SW 8.1 mph - 0.00 in Rain Light Rain
7:53 PM 46.9°F 44.1°F 90% 30.34 in 5.0 miles SW 6.9 mph - 0.00 in Rain Light Rain
8:53 PM 46.9°F 45.0°F 93% 30.34 in 4.0 miles SW 5.8 mph - 0.02 in Rain Light Rain
9:02 PM 46.4°F 44.6°F 93% 30.32 in 2.5 miles SSW 5.8 mph - 0.00 in Rain Light Rain
9:24 PM 46.4°F 44.6°F 93% 30.32 in 1.5 miles SSW 8.1 mph - 0.01 in   Overcast
9:53 PM 46.0°F 45.0°F 96% 30.34 in 0.8 miles SSW 5.8 mph - 0.01 in   Light Drizzle
10:53 PM 46.0°F 45.0°F 96% 30.35 in 0.8 miles SSW 8.1 mph - 0.01 in   Light Drizzle
11:53 PM 46.0°F 44.1°F 93% 30.36 in 0.8 miles SW 9.2 mph - 0.00 in   Overcast
Moon Phase
Jan. 31 Feb. 03 Feb. 10 Feb. 17 Feb. 25
Sunrise:07:36 AM (PST) Moon Rise:10:44 PM (PST)
Sunset:05:09 PM (PST) Moon Set:09:14 AM (PST)

Copyright © 2014 The Weather Underground, Inc.